TimeEST,TemperatureF,Dew PointF,Humidity,Sea Level PressureIn,VisibilityMPH,Wind Direction,Wind SpeedMPH,Gust SpeedMPH,PrecipitationIn,Events,Conditions,WindDirDegrees,DateUTC
12:53 AM,77.0,71.1,82,30.04,10.0,North,5.8,-,N/A,,Overcast,350,2011-11-18 05:53:00
1:53 AM,75.9,72.0,87,30.04,10.0,North,5.8,-,N/A,,Overcast,350,2011-11-18 06:53:00
2:53 AM,77.0,71.1,82,30.02,10.0,North,3.5,-,N/A,,Overcast,10,2011-11-18 07:53:00
3:53 AM,77.0,72.0,84,30.03,10.0,NNE,3.5,-,N/A,,Overcast,20,2011-11-18 08:53:00
4:53 AM,77.0,73.0,88,30.02,10.0,North,4.6,-,N/A,,Overcast,350,2011-11-18 09:53:00
5:53 AM,77.0,73.0,88,30.04,10.0,NNE,5.8,-,N/A,,Overcast,20,2011-11-18 10:53:00
6:29 AM,75.2,75.2,100,30.05,10.0,NNE,5.8,-,N/A,,Partly Cloudy,20,2011-11-18 11:29:00
7:09 AM,77.0,73.4,89,30.06,10.0,NNE,6.9,-,N/A,,Mostly Cloudy,30,2011-11-18 12:09:00
7:21 AM,77.0,73.4,89,30.06,10.0,NE,5.8,-,N/A,,Mostly Cloudy,40,2011-11-18 12:21:00
7:31 AM,78.8,73.4,83,30.07,10.0,NE,9.2,-,N/A,,Scattered Clouds,50,2011-11-18 12:31:00
7:53 AM,79.0,73.0,82,30.07,10.0,NE,8.1,-,N/A,,Partly Cloudy,40,2011-11-18 12:53:00
8:53 AM,80.1,73.9,81,30.09,10.0,NE,13.8,-,N/A,,Scattered Clouds,40,2011-11-18 13:53:00
9:53 AM,81.0,75.0,82,30.10,10.0,NE,15.0,-,N/A,,Mostly Cloudy,40,2011-11-18 14:53:00
10:05 AM,80.6,75.2,84,30.10,10.0,NE,12.7,-,N/A,,Scattered Clouds,40,2011-11-18 15:05:00
11:53 AM,82.9,73.9,74,30.09,10.0,NE,12.7,-,N/A,,Partly Cloudy,50,2011-11-18 16:53:00
12:53 PM,80.1,75.9,87,30.06,10.0,ENE,11.5,-,0.01,,Mostly Cloudy,60,2011-11-18 17:53:00
1:53 PM,82.0,73.0,74,30.04,10.0,East,9.2,-,N/A,,Partly Cloudy,90,2011-11-18 18:53:00
2:53 PM,82.9,72.0,69,30.04,10.0,East,9.2,-,N/A,,Partly Cloudy,80,2011-11-18 19:53:00
3:53 PM,82.0,72.0,71,30.04,10.0,East,9.2,-,N/A,,Clear,90,2011-11-18 20:53:00
4:53 PM,80.1,72.0,76,30.05,10.0,East,9.2,-,N/A,,Mostly Cloudy,80,2011-11-18 21:53:00
5:28 PM,78.8,73.4,83,30.06,10.0,NE,6.9,-,N/A,,Mostly Cloudy,40,2011-11-18 22:28:00
5:53 PM,78.1,73.9,87,30.06,10.0,NE,13.8,18.4,N/A,,Overcast,50,2011-11-18 22:53:00
6:07 PM,78.8,73.4,83,30.07,10.0,ENE,6.9,18.4,N/A,,Overcast,60,2011-11-18 23:07:00
7:53 PM,78.1,73.0,84,30.09,10.0,ENE,15.0,20.7,N/A,,Partly Cloudy,70,2011-11-19 00:53:00
8:53 PM,78.1,72.0,81,30.10,10.0,East,11.5,24.2,N/A,,Partly Cloudy,80,2011-11-19 01:53:00
9:53 PM,78.1,72.0,81,30.11,10.0,ENE,13.8,20.7,N/A,,Clear,70,2011-11-19 02:53:00
11:53 PM,78.1,71.1,79,30.10,10.0,East,12.7,17.3,N/A,,Partly Cloudy,80,2011-11-19 04:53:00